This demonstration page uses our WeatherBlox Daily Observations layout. Learn more.

Left ArrowRight Arrow

36.17497, -115.13722

Hourly Observations for January 30, 2019

Temp ( °F °C ) Dew Point ( °F °C ) Humidity (%) Winds ( mph kmh ) Pressure ( in mb ) Visibility ( mi km ) Precip ( " mm )
12:53 am 00:53 Clear 49 9.4 31 -0.6 50 50 Calm 30 1016 10 16.0934 N/A
1:53 am 01:53 Clear 48 8.9 31 -0.6 52 52 NNW 5 7 30.01 1016 10 16.0934 N/A
2:53 am 02:53 Clear 46 7.8 31 -0.6 56 56 WNW 6 9 30.01 1016 10 16.0934 N/A
3:53 am 03:53 Clear 47 8.3 30 -1.1 52 52 WNW 7 11 30.01 1016 10 16.0934 N/A
4:53 am 04:53 Clear 47 8.3 30 -1.1 52 52 NW 3 6 30.01 1016 10 16.0934 N/A
7:53 am 07:53 Sunny 48 8.9 30 -1.1 50 50 Calm 30.06 1018 10 16.0934 N/A
8:53 am 08:53 Sunny 51 10.6 31 -0.6 46 46 SE 3 6 30.07 1018 10 16.0934 N/A
9:53 am 09:53 Sunny 54 12.2 29 -1.7 38 38 Calm 30.07 1018 10 16.0934 N/A
10:53 am 10:53 Sunny 57 13.9 28 -2.2 33 33 VRB 7 11 30.05 1018 10 16.0934 N/A
11:53 am 11:53 Sunny 59 15 28 -2.2 31 31 ESE 6 9 30.03 1017 10 16.0934 N/A
12:53 pm 12:53 Sunny 60 15.6 27 -2.8 28 28 Calm 30.01 1016 10 16.0934 N/A
1:53 pm 13:53 Sunny 61 16.1 23 -5 23 23 SE 6 9 29.98 1015 10 16.0934 N/A
2:53 pm 14:53 Sunny 62 16.7 23 -5 22 22 Calm 29.97 1015 10 16.0934 N/A
3:53 pm 15:53 Sunny 62 16.7 22 -5.6 21 21 ESE 3 6 29.96 1015 10 16.0934 N/A
4:53 pm 16:53 Sunny 61 16.1 22 -5.6 22 22 Calm 29.96 1014 10 16.0934 N/A
5:53 pm 17:53 Clear 59 15 23 -5 25 25 Calm 29.96 1015 10 16.0934 N/A
6:53 pm 18:53 Clear 58 14.4 24 -4.4 27 27 Calm 29.98 1015 10 16.0934 N/A
7:53 pm 19:53 Clear 54 12.2 27 -2.8 35 35 NNW 3 6 29.98 1015 10 16.0934 N/A
8:53 pm 20:53 Clear 52 11.1 29 -1.7 41 41 WNW 6 9 29.98 1015 10 16.0934 N/A
9:53 pm 21:53 Clear 50 10 29 -1.7 44 44 WNW 5 7 29.99 1016 10 16.0934 N/A
10:53 pm 22:53 Clear 49 9.4 29 -1.7 46 46 N 5 7 29.99 1016 10 16.0934 N/A
11:53 pm 23:53 Clear 48 8.9 29 -1.7 48 48 NW 6 9 30 1016 10 16.0934 N/A

Powered by AerisWeather